Regional Weather Roundup
Issued by NWS

Home | Current Version | Previous Version | Graphics & Text | Print | Product List | Glossary On
Versions: 1 2 3 4 5 6 7 8 9 10 11 12 13 14 15 16 17 18 19 20 21 22 23 24 25 26 27 28 29 30 31 32 33 34 35 36 37 38 39 40 41 42 43 44 45 46 47 48 49 50
000
ASUS43 KMPX 251010
RWRMN
WEATHER ROUNDUP FOR MINNESOTA
NATIONAL WEATHER SERVICE TWIN CITIES/CHANHASSEN MN
500 AM CDT TUE JUL 25 2017


NOTE: "FAIR" INDICATES FEW OR NO CLOUDS BELOW 12,000 FEET WITH NO
SIGNIFICANT WEATHER AND/OR OBSTRUCTIONS TO VISIBILITY. N/A MEANS
CURRENT SKY AND/OR WEATHER CONDITIONS ARE NOT AVAILABLE.

MNZ060>063-068>070-251100-
   Twin Cities Metro

CITY           SKY/WX    TMP DP  RH WIND       PRES   REMARKS
TWIN CITIES    CLOUDY    67  59  75 S8        30.04R
ST PAUL        MOCLDY    66  62  87 S10       30.06R
CRYSTAL        MOCLDY    68  57  68 S7G18     30.02S
BLAINE         CLOUDY    70  61  73 SE12      30.03F
LAKEVILLE      CLOUDY    64  61  88 S3        30.08R
EDEN PRAIRIE   MOCLDY    69  60  73 S13       30.03R
SOUTH ST PAUL  MOCLDY    67  60  79 S6        30.06R
LAKE ELMO      MOCLDY    64  61  88 S5        30.07R
$$
MNZ001>005-007-008-013>017-022>024-027-028-251100-
   Northwest Minnesota

CITY           SKY/WX    TMP DP  RH WIND       PRES   REMARKS
BEMIDJI        PTCLDY    62  60  94 SE8       29.93F
HALLOCK        CLOUDY    66  63  88 S10       29.85F
ROSEAU         MOCLDY    63  57  82 S3        29.88F
WARROAD        CLOUDY    66  63  88 S3        29.90S
THIEF RVR FALL CLOUDY    63  62  97 SE8       29.89S
CROOKSTON      CLOUDY    66  63  88 S8        29.86S
FOSSTON        PTCLDY    63  61  94 S7        29.90F
DETROIT LAKES  CLEAR     64  63  94 SE12      29.91F
MOORHEAD       CLEAR     66  63  88 SE8       29.86F
PARK RAPIDS    CLEAR     64  60  87 SE9       29.94F
MAHNOMEN       FAIR      65  62  90 SE7       29.90R
$$
MNZ006-009>011-018-025>026-251100-
   North Central Minnesota

CITY           SKY/WX    TMP DP  RH WIND       PRES   REMARKS
BAUDETTE       CLOUDY    62  60  93 SE9       29.91F
FLAG ISLAND    CLOUDY    68  64  88 S8        29.89F
INTL FALLS     CLOUDY    60  57  89 SE6       29.96F
WASKISH        CLOUDY    64  61  88 S6        29.93S
BIG FORK       CLOUDY    61  59  94 S5        29.98S
LONGVILLE      CLEAR     61  61 100 SE6       29.97F
GRAND RAPIDS   CLOUDY    59  58  96 SE8       30.01F
CRANE LAKE     CLOUDY    55  54  94 CALM      30.02S
ORR            CLOUDY    57  54  88 S5        29.98S
COOK           CLOUDY    61  55  82 SE3       30.01F
WALKER         FAIR      64  60  87 SE6       29.95F
$$
MNZ012-019>021-037-251100-
   Northeast Minnesota

CITY           SKY/WX    TMP DP  RH WIND       PRES   REMARKS
DULUTH         CLEAR     57  57 100 SE7       30.04F
ELY            CLOUDY    57  55  94 S5        30.04S
HIBBING        CLOUDY    51  51 100 SE5       30.01F
EVELETH        CLOUDY    55  52  90 CALM      30.04S
DULUTH HARBOR  CLEAR     63  61  94 E5        30.04F
TWO HARBORS    CLEAR     52  46  82 CALM      30.04F
SILVER BAY     CLEAR     46  46 100 CALM      30.04F
GRAND MARAIS     N/A     51  49  92 CALM      30.08R
G MARAIS ARPRT CLOUDY    48  45  87 CALM      30.11R
$$
MNZ029>031-032-039>041-046>048-054>057-064-251100-
   West Central Minnesota

CITY           SKY/WX    TMP DP  RH WIND       PRES   REMARKS
FERGUS FALLS   CLEAR     68  63  83 SE14      29.88F
WHEATON        CLEAR     66  63  88 SE10      29.89S
MORRIS         MOCLDY    68  64  88 SE12      29.90R
ALEXANDRIA     MOCLDY    67  63  87 SE10      29.95F
ELBOW LAKE     FAIR      66  64  92 E12G18    29.90S
WADENA         CLEAR     63  63 100 SE8       29.94S
GLENWOOD       MOCLDY    66  64  94 S8        29.95R
APPLETON       MOCLDY    70  64  83 SE10      29.89F
BENSON         MOCLDY    70  63  78 S10       29.93
ORTONVILLE     CLOUDY    68  64  88 MISG      29.88S
MADISON        CLOUDY    72  64  78 S10G17    29.89S
WILLMAR        FAIR      70  64  83 SE17G23     N/A
$$
MNZ033>034-036-042>043-049>051-058-059-251100-
   Central Minnesota

CITY           SKY/WX    TMP DP  RH WIND       PRES   REMARKS
ST CLOUD       CLOUDY    67  63  87 S12       30.00S
SAUK CENTRE    CLOUDY    65  63  91 SE9       29.96S
PAYNESVILLE    MOCLDY    67  64  88 SE12G22   29.97F
AITKIN         CLOUDY    66  61  82 S12       29.99F
PINE RIVER     CLOUDY    64  61  88 SE9       30.01R
BRAINERD       CLOUDY    65  61  87 S10       29.98F
STAPLES        CLEAR     64  61  88 SE7       29.96S
LONG PRAIRIE   MOCLDY    64  61  88 E9        29.96F
LITTLE FALLS   CLOUDY    64  61  88 SE9       29.98F
LITCHFIELD     CLOUDY    70  64  83 SE10G17   29.99F
BUFFALO        CLOUDY    67  60  77 S7        30.03R
MAPLE LAKE     CLOUDY    68  63  84 S7        30.02R
HUTCHINSON     LGT RAIN  67  65  92 SE6G16    30.00F
$$
MNZ037-044-045-052-053-251100-
   East Central Minnesota

CITY           SKY/WX    TMP DP  RH WIND       PRES   REMARKS
PRINCETON      CLOUDY    66  63  88 SE8       30.02S
MORA           CLOUDY    63  61  94 E7        30.05S
CAMBRIDGE      CLOUDY    68  57  68 SE10      30.00S
RUSH CITY      RAIN      64  61  90 SE3       30.05R
MOOSE LAKE     CLOUDY    61  57  88 CALM      30.03S
HINCKLEY       LGT RAIN  64  63  94 S3        30.05R
CLOQUET        CLOUDY    57  55  94 CALM      30.05S
MCGREGOR       PTCLDY    59  57  94 SE5       30.02F
$$
MNZ071>073-080-081-089-090-097-098-251100-
   Southwest Minnesota

CITY           SKY/WX    TMP DP  RH WIND       PRES   REMARKS
MONTEVIDEO     MOCLDY    66  66 100 S10       29.92S
GRANITE FALLS  MOCLDY    69  65  88 SE15      29.93F
CANBY          CLOUDY    71  63  75 SE15G23   29.90F
MARSHALL       CLOUDY    70  63  78 SE15      29.92F
REDWOOD FALLS  CLOUDY    68  63  84 SE9       29.97F
OLIVIA         LGT RAIN  68  63  83 SE14      29.97F
PIPESTONE      CLOUDY    68  63  83 S14       29.93F
WINDOM         PTCLDY    66  63  88 SE15      29.98F
WORTHINGTON    CLEAR     66  63  90 SE12G18   29.98F
JACKSON        PTCLDY    64  63  94 S13       30.00S
TRACY          CLOUDY    69  65  86 S10G17    29.94F
SLAYTON        PTCLDY    64  61  90 SE12      29.96F
$$
MNZ065>067-074>077-082>085-091>093-251100-
   South Central Minnesota

CITY           SKY/WX    TMP DP  RH WIND       PRES   REMARKS
MANKATO        CLOUDY    66  62  87 S15       30.02R
NEW ULM        CLOUDY    66  63  88 SE8       30.01R
ST JAMES       CLOUDY    66  64  94 SE12      30.01R
FAIRMONT       CLOUDY    66  63  90 S16       30.02S
GLENCOE        CLOUDY    67  66  97 SE9       30.00F
FARIBAULT      CLOUDY    66  61  82 S7        30.06R
OWATONNA       CLOUDY    64  61  88 S15       30.05F
WASECA         CLOUDY    63  59  88 SE9       30.06S
ALBERT LEA     MOCLDY    66  63  88 S12G17    30.06F
$$
MNZ078>079-086>088-094>096-251100-
   Southeast Minnesota

CITY           SKY/WX    TMP DP  RH WIND       PRES   REMARKS
ROCHESTER      PTCLDY    61  60  97 S12       30.09S
RED WING       MOCLDY    66  57  72 SE5       30.06S
STANTON        MOCLDY    66  60  79 S3G9      30.05R
DODGE CENTER   CLOUDY    61  59  94 SE7       30.07F
WINONA         PTCLDY    61  57  88 SE3       30.10R
AUSTIN         MOCLDY    63  59  88 SE5       30.09S
PRESTON        PTCLDY    60  57  89 S8        30.11S
$$
ABBREVIATIONS USED IN REMARKS
   TC - TEMPERATURES IN CELSIUS
  WCI - WIND CHILL INDEX
   HX - HEAT INDEX
  VSB - VISIBILITY
$$




USA.gov is the U.S. government's official web portal to all federal, state and local government web resources and services.